Time,TemperatureF,DewpointF,PressureIn,WindDirection,WindDirectionDegrees,WindSpeedMPH,WindSpeedGustMPH,Humidity,HourlyPrecipIn,Conditions,Clouds,dailyrainin,SoftwareType,DateUTC
2013-05-23 00:03:00,73.0,73.0,29.94,East,86,6.0,6.0,100,0.48,,,-99.99,,2013-05-23 04:03:00,
2013-05-23 00:12:00,73.0,73.0,29.94,ESE,111,6.0,6.0,100,0.48,,,-99.99,,2013-05-23 04:12:00,
2013-05-23 00:22:00,73.0,73.0,29.94,ESE,111,6.0,6.0,100,0.48,,,-99.99,,2013-05-23 04:22:00,
2013-05-23 00:33:00,73.0,73.0,29.94,East,90,5.0,6.0,100,0.48,,,-99.99,,2013-05-23 04:33:00,
2013-05-23 00:43:00,73.0,73.0,29.94,East,90,5.0,6.0,100,0.48,,,-99.99,,2013-05-23 04:43:00,
2013-05-23 00:52:00,72.0,72.0,29.94,East,91,4.0,5.0,100,0.48,,,-99.99,,2013-05-23 04:52:00,
2013-05-23 01:02:00,72.0,72.0,29.94,East,97,5.0,5.0,100,0.48,,,-99.99,,2013-05-23 05:02:00,
2013-05-23 01:11:00,72.0,72.0,29.94,East,97,5.0,6.0,100,0.48,,,-99.99,,2013-05-23 05:11:00,
2013-05-23 01:22:00,72.0,72.0,29.94,East,97,5.0,6.0,100,0.48,,,-99.99,,2013-05-23 05:22:00,
2013-05-23 01:32:00,72.0,72.0,29.93,ESE,107,5.0,6.0,100,0.48,,,-99.99,,2013-05-23 05:32:00,
2013-05-23 01:42:00,72.0,72.0,29.93,ESE,103,5.0,6.0,100,0.48,,,-99.99,,2013-05-23 05:42:00,
2013-05-23 01:52:00,72.0,72.0,29.93,ESE,103,5.0,6.0,100,0.48,,,-99.99,,2013-05-23 05:52:00,
2013-05-23 02:02:00,72.0,72.0,29.92,ESE,113,4.0,4.0,100,0.48,,,-99.99,,2013-05-23 06:02:00,
2013-05-23 02:12:00,72.0,72.0,29.92,East,94,5.0,5.0,100,0.48,,,-99.99,,2013-05-23 06:12:00,
2013-05-23 02:21:00,72.0,72.0,29.92,East,94,5.0,5.0,100,0.48,,,-99.99,,2013-05-23 06:21:00,
2013-05-23 02:32:00,72.0,72.0,29.92,ENE,69,1.0,3.0,100,0.48,,,-99.99,,2013-05-23 06:32:00,
2013-05-23 02:42:00,72.0,72.0,29.92,ENE,69,1.0,3.0,100,0.48,,,-99.99,,2013-05-23 06:42:00,
2013-05-23 02:52:00,71.0,71.0,29.91,ENE,76,3.0,3.0,100,0.48,,,-99.99,,2013-05-23 06:52:00,
2013-05-23 03:02:00,71.0,71.0,29.92,ENE,68,1.0,2.0,100,0.48,,,-99.99,,2013-05-23 07:02:00,
2013-05-23 03:11:00,71.0,71.0,29.92,ENE,68,1.0,2.0,100,0.48,,,-99.99,,2013-05-23 07:11:00,
2013-05-23 03:21:00,71.0,71.0,29.92,East,98,4.0,4.0,100,0.48,,,-99.99,,2013-05-23 07:21:00,
2013-05-23 03:32:00,71.0,71.0,29.92,East,86,0.0,2.0,100,0.48,,,-99.99,,2013-05-23 07:32:00,
2013-05-23 03:42:00,71.0,71.0,29.92,East,94,1.0,2.0,100,0.48,,,-99.99,,2013-05-23 07:42:00,
2013-05-23 03:59:00,71.0,71.0,29.92,East,94,1.0,2.0,100,0.48,,,-99.99,,2013-05-23 07:59:00,
2013-05-23 04:11:00,71.0,71.0,29.92,ENE,68,2.0,3.0,100,0.48,,,-99.99,,2013-05-23 08:11:00,
2013-05-23 04:22:00,70.0,70.0,29.93,North,0,0.0,0.0,100,0.48,,,-99.99,,2013-05-23 08:22:00,
2013-05-23 04:32:00,70.0,70.0,29.93,ESE,117,3.0,4.0,100,0.48,,,-99.99,,2013-05-23 08:32:00,
2013-05-23 04:42:00,70.0,70.0,29.93,ESE,117,3.0,4.0,100,0.48,,,-99.99,,2013-05-23 08:42:00,
2013-05-23 04:52:00,70.0,70.0,29.93,ESE,103,2.0,3.0,100,0.48,,,-99.99,,2013-05-23 08:52:00,
2013-05-23 05:01:00,70.0,70.0,29.93,ESE,113,1.0,2.0,100,0.48,,,-99.99,,2013-05-23 09:01:00,
2013-05-23 05:11:00,70.0,70.0,29.93,ESE,113,1.0,2.0,100,0.48,,,-99.99,,2013-05-23 09:11:00,
2013-05-23 05:22:00,70.0,70.0,29.93,North,0,0.0,0.0,100,0.48,,,-99.99,,2013-05-23 09:22:00,
2013-05-23 05:33:00,69.0,69.0,29.93,North,0,0.0,0.0,100,0.48,,,-99.99,,2013-05-23 09:33:00,
2013-05-23 05:42:00,69.0,69.0,29.93,North,0,0.0,0.0,100,0.48,,,-99.99,,2013-05-23 09:42:00,
2013-05-23 05:53:00,70.0,70.0,29.93,North,0,0.0,0.0,100,0.48,,,-99.99,,2013-05-23 09:53:00,
2013-05-23 06:02:00,70.0,70.0,29.94,NW,318,1.0,2.0,100,0.48,,,-99.99,,2013-05-23 10:02:00,
2013-05-23 06:12:00,70.0,70.0,29.95,North,0,0.0,0.0,100,0.48,,,-99.99,,2013-05-23 10:12:00,
2013-05-23 06:22:00,70.0,70.0,29.95,North,0,0.0,0.0,100,0.48,,,-99.99,,2013-05-23 10:22:00,
2013-05-23 06:32:00,70.0,70.0,29.95,NW,319,2.0,2.0,100,0.48,,,-99.99,,2013-05-23 10:32:00,
2013-05-23 06:42:00,70.0,70.0,29.95,NW,319,2.0,2.0,100,0.48,,,-99.99,,2013-05-23 10:42:00,
2013-05-23 06:52:00,70.0,70.0,29.96,NW,318,2.0,3.0,100,0.48,,,-99.99,,2013-05-23 10:52:00,
2013-05-23 07:02:00,70.0,70.0,29.96,NW,319,0.0,1.0,100,0.48,,,-99.99,,2013-05-23 11:02:00,
2013-05-23 07:11:00,70.0,70.0,29.96,NW,319,0.0,1.0,100,0.48,,,-99.99,,2013-05-23 11:11:00,
2013-05-23 07:22:00,70.0,70.0,29.96,North,0,0.0,0.0,100,0.48,,,-99.99,,2013-05-23 11:22:00,
2013-05-23 07:32:00,70.0,70.0,29.97,North,0,0.0,0.0,100,0.48,,,-99.99,,2013-05-23 11:32:00,
2013-05-23 07:42:00,70.0,70.0,29.97,North,0,0.0,0.0,100,0.48,,,-99.99,,2013-05-23 11:42:00,
2013-05-23 07:52:00,70.0,70.0,29.98,North,0,0.0,0.0,100,0.48,,,-99.99,,2013-05-23 11:52:00,
2013-05-23 08:01:00,71.0,71.0,29.98,NW,309,3.0,4.0,100,0.48,,,-99.99,,2013-05-23 12:01:00,
2013-05-23 08:12:00,72.0,72.0,29.99,NNW,336,1.0,4.0,100,0.48,,,-99.99,,2013-05-23 12:12:00,
2013-05-23 08:21:00,72.0,72.0,29.99,NNW,336,1.0,4.0,100,0.48,,,-99.99,,2013-05-23 12:21:00,
2013-05-23 08:32:00,72.0,72.0,29.99,NW,318,2.0,4.0,100,0.48,,,-99.99,,2013-05-23 12:32:00,
2013-05-23 08:42:00,72.0,72.0,29.99,NW,318,2.0,4.0,100,0.48,,,-99.99,,2013-05-23 12:42:00,
2013-05-23 08:52:00,73.0,73.0,30.00,NW,309,1.0,3.0,100,0.48,,,-99.99,,2013-05-23 12:52:00,
2013-05-23 09:01:00,73.0,73.0,30.00,NW,307,3.0,4.0,100,0.48,,,-99.99,,2013-05-23 13:01:00,
2013-05-23 09:11:00,73.0,73.0,30.00,NW,307,3.0,4.0,100,0.48,,,-99.99,,2013-05-23 13:11:00,
2013-05-23 09:22:00,73.0,73.0,30.00,NW,307,3.0,4.0,100,0.48,,,-99.99,,2013-05-23 13:22:00,
2013-05-23 09:32:00,74.0,74.0,30.00,NW,318,4.0,8.0,100,0.48,,,-99.99,,2013-05-23 13:32:00,
2013-05-23 09:42:00,74.0,74.0,30.00,NW,318,4.0,8.0,100,0.48,,,-99.99,,2013-05-23 13:42:00,
2013-05-23 09:52:00,76.0,76.0,30.00,WNW,300,7.0,11.0,100,0.48,,,-99.99,,2013-05-23 13:52:00,
2013-05-23 10:02:00,77.0,71.0,29.99,WNW,301,6.0,9.0,81,0.48,,,-99.99,,2013-05-23 14:02:00,
2013-05-23 10:11:00,78.0,70.0,30.00,NNW,333,6.0,10.0,77,0.48,,,-99.99,,2013-05-23 14:11:00,
2013-05-23 10:21:00,78.0,70.0,30.00,NNW,333,6.0,10.0,77,0.48,,,-99.99,,2013-05-23 14:21:00,
2013-05-23 10:32:00,78.0,70.0,30.00,WNW,302,6.0,9.0,76,0.48,,,-99.99,,2013-05-23 14:32:00,
2013-05-23 10:42:00,78.0,70.0,30.00,WNW,302,6.0,9.0,76,0.48,,,-99.99,,2013-05-23 14:42:00,
2013-05-23 10:52:00,79.0,70.0,30.00,NW,323,7.0,9.0,73,0.48,,,-99.99,,2013-05-23 14:52:00,
2013-05-23 11:01:00,80.0,71.0,30.00,West,278,6.0,10.0,73,0.48,,,-99.99,,2013-05-23 15:01:00,
2013-05-23 11:11:00,80.0,71.0,30.00,West,278,6.0,10.0,73,0.48,,,-99.99,,2013-05-23 15:11:00,
2013-05-23 11:21:00,81.0,71.0,30.00,NNW,332,7.0,10.0,72,0.48,,,-99.99,,2013-05-23 15:21:00,
2013-05-23 11:33:00,81.0,70.0,30.00,NNW,335,8.0,11.0,70,0.48,,,-99.99,,2013-05-23 15:33:00,
2013-05-23 11:42:00,81.0,70.0,30.00,NNW,335,8.0,11.0,70,0.48,,,-99.99,,2013-05-23 15:42:00,
2013-05-23 11:53:00,82.0,69.0,30.01,WNW,285,4.0,9.0,65,0.48,,,-99.99,,2013-05-23 15:53:00,
2013-05-23 12:03:00,82.0,69.0,30.01,NNW,338,7.0,12.0,64,0.48,,,-99.99,,2013-05-23 16:03:00,
2013-05-23 12:12:00,83.0,70.0,30.01,NNW,335,5.0,12.0,64,0.48,,,-99.99,,2013-05-23 16:12:00,
2013-05-23 12:23:00,83.0,70.0,30.01,NNW,335,5.0,12.0,64,0.48,,,-99.99,,2013-05-23 16:23:00,
2013-05-23 12:33:00,83.0,68.0,30.00,WNW,288,6.0,9.0,61,0.48,,,-99.99,,2013-05-23 16:33:00,
2013-05-23 12:42:00,83.0,68.0,30.00,WNW,288,6.0,9.0,61,0.48,,,-99.99,,2013-05-23 16:42:00,
2013-05-23 12:52:00,83.0,69.0,30.00,WNW,301,8.0,12.0,62,0.48,,,-99.99,,2013-05-23 16:52:00,
2013-05-23 13:03:00,84.0,70.0,30.00,WNW,293,7.0,13.0,62,0.48,,,-99.99,,2013-05-23 17:03:00,
2013-05-23 13:11:00,84.0,68.0,29.99,NNW,333,6.0,10.0,59,0.48,,,-99.99,,2013-05-23 17:11:00,
2013-05-23 13:23:00,84.0,68.0,29.99,NNW,333,6.0,10.0,59,0.48,,,-99.99,,2013-05-23 17:23:00,
2013-05-23 13:33:00,84.0,68.0,29.99,NW,322,7.0,12.0,58,0.48,,,-99.99,,2013-05-23 17:33:00,
2013-05-23 13:43:00,84.0,68.0,29.99,NW,322,7.0,12.0,58,0.48,,,-99.99,,2013-05-23 17:43:00,
2013-05-23 13:53:00,85.0,67.0,29.99,West,277,7.0,9.0,55,0.48,,,-99.99,,2013-05-23 17:53:00,
2013-05-23 14:01:00,86.0,66.0,29.98,WNW,294,6.0,10.0,52,0.48,,,-99.99,,2013-05-23 18:01:00,
2013-05-23 14:11:00,86.0,66.0,29.98,WNW,294,6.0,10.0,52,0.48,,,-99.99,,2013-05-23 18:11:00,
2013-05-23 14:22:00,86.0,66.0,29.98,WNW,301,6.0,11.0,51,0.48,,,-99.99,,2013-05-23 18:22:00,
2013-05-23 14:32:00,87.0,65.0,29.98,North,352,2.0,6.0,49,0.48,,,-99.99,,2013-05-23 18:32:00,
2013-05-23 14:42:00,87.0,65.0,29.98,North,352,2.0,6.0,49,0.48,,,-99.99,,2013-05-23 18:42:00,
2013-05-23 14:52:00,87.0,64.0,29.98,NW,318,4.0,10.0,46,0.48,,,-99.99,,2013-05-23 18:52:00,
2013-05-23 15:01:00,87.0,65.0,29.97,NW,307,6.0,12.0,48,0.48,,,-99.99,,2013-05-23 19:01:00,
2013-05-23 15:11:00,87.0,65.0,29.97,NW,307,6.0,12.0,48,0.48,,,-99.99,,2013-05-23 19:11:00,
2013-05-23 15:21:00,87.0,64.0,29.97,North,359,2.0,8.0,47,0.48,,,-99.99,,2013-05-23 19:21:00,
2013-05-23 15:32:00,88.0,65.0,29.96,NW,326,8.0,12.0,46,0.48,,,-99.99,,2013-05-23 19:32:00,
2013-05-23 15:42:00,88.0,65.0,29.96,NW,319,6.0,10.0,47,0.48,,,-99.99,,2013-05-23 19:42:00,
2013-05-23 15:52:00,88.0,65.0,29.96,NW,319,6.0,10.0,47,0.48,,,-99.99,,2013-05-23 19:52:00,
2013-05-23 16:02:00,88.0,65.0,29.95,NNW,345,5.0,8.0,46,0.48,,,-99.99,,2013-05-23 20:02:00,
2013-05-23 16:11:00,89.0,63.0,29.94,NW,305,7.0,10.0,42,0.48,,,-99.99,,2013-05-23 20:11:00,
2013-05-23 16:21:00,89.0,63.0,29.94,NW,305,7.0,10.0,42,0.48,,,-99.99,,2013-05-23 20:21:00,
2013-05-23 16:32:00,90.0,64.0,29.93,NW,322,2.0,7.0,42,0.48,,,-99.99,,2013-05-23 20:32:00,
2013-05-23 16:42:00,90.0,64.0,29.93,NW,322,2.0,7.0,42,0.48,,,-99.99,,2013-05-23 20:42:00,
2013-05-23 16:52:00,90.0,64.0,29.94,ENE,65,2.0,5.0,42,0.48,,,-99.99,,2013-05-23 20:52:00,
2013-05-23 17:01:00,90.0,64.0,29.94,West,269,6.0,8.0,42,0.48,,,-99.99,,2013-05-23 21:01:00,
2013-05-23 17:11:00,90.0,64.0,29.94,West,269,6.0,8.0,42,0.48,,,-99.99,,2013-05-23 21:11:00,
2013-05-23 17:22:00,80.0,67.0,29.95,NNW,340,14.0,24.0,64,0.48,,,-99.99,,2013-05-23 21:22:00,
2013-05-23 17:32:00,75.0,68.0,29.94,WNW,293,8.0,10.0,80,0.48,,,-99.99,,2013-05-23 21:32:00,
2013-05-23 17:43:00,75.0,68.0,29.94,WNW,293,8.0,10.0,80,0.48,,,-99.99,,2013-05-23 21:43:00,
2013-05-23 17:53:00,76.0,68.0,29.94,West,264,2.0,4.0,77,0.48,,,-99.99,,2013-05-23 21:53:00,
2013-05-23 18:03:00,79.0,69.0,29.93,NW,309,0.0,4.0,71,0.48,,,-99.99,,2013-05-23 22:03:00,
2013-05-23 18:12:00,80.0,66.0,29.93,WNW,293,4.0,8.0,62,0.48,,,-99.99,,2013-05-23 22:12:00,
2013-05-23 18:22:00,80.0,66.0,29.93,WNW,293,4.0,8.0,62,0.48,,,-99.99,,2013-05-23 22:22:00,
2013-05-23 18:33:00,83.0,70.0,29.93,WSW,255,2.0,4.0,64,0.48,,,-99.99,,2013-05-23 22:33:00,
2013-05-23 18:42:00,83.0,70.0,29.93,WSW,255,2.0,4.0,64,0.48,,,-99.99,,2013-05-23 22:42:00,
2013-05-23 18:52:00,84.0,67.0,29.93,West,281,4.0,5.0,56,0.48,,,-99.99,,2013-05-23 22:52:00,
2013-05-23 19:01:00,85.0,65.0,29.93,WNW,297,3.0,5.0,51,0.48,,,-99.99,,2013-05-23 23:01:00,
2013-05-23 19:11:00,85.0,68.0,29.92,WNW,284,3.0,4.0,56,0.48,,,-99.99,,2013-05-23 23:11:00,
2013-05-23 19:21:00,85.0,68.0,29.92,WNW,284,3.0,4.0,56,0.48,,,-99.99,,2013-05-23 23:21:00,
2013-05-23 19:32:00,86.0,68.0,29.93,West,264,3.0,4.0,55,0.48,,,-99.99,,2013-05-23 23:32:00,
2013-05-23 19:42:00,86.0,68.0,29.93,West,264,3.0,4.0,55,0.48,,,-99.99,,2013-05-23 23:42:00,
2013-05-23 19:52:00,86.0,69.0,29.94,North,0,0.0,0.0,58,0.48,,,-99.99,,2013-05-23 23:52:00,
2013-05-23 20:01:00,85.0,68.0,29.95,North,0,0.0,0.0,57,0.48,,,-99.99,,2013-05-24 00:01:00,
2013-05-23 20:12:00,85.0,68.0,29.95,North,0,0.0,0.0,57,0.48,,,-99.99,,2013-05-24 00:12:00,
2013-05-23 20:21:00,85.0,68.0,29.95,North,0,0.0,0.0,57,0.48,,,-99.99,,2013-05-24 00:21:00,
2013-05-23 20:32:00,84.0,69.0,29.96,NW,316,1.0,4.0,60,0.48,,,-99.99,,2013-05-24 00:32:00,
2013-05-23 20:42:00,84.0,69.0,29.96,NW,316,1.0,4.0,60,0.48,,,-99.99,,2013-05-24 00:42:00,
2013-05-23 20:52:00,83.0,70.0,29.96,NW,318,2.0,3.0,64,0.48,,,-99.99,,2013-05-24 00:52:00,
2013-05-23 21:01:00,81.0,70.0,29.97,NW,309,5.0,7.0,70,0.48,,,-99.99,,2013-05-24 01:01:00,
2013-05-23 21:12:00,81.0,70.0,29.97,NW,309,5.0,7.0,70,0.48,,,-99.99,,2013-05-24 01:12:00,
2013-05-23 21:22:00,80.0,69.0,29.97,NW,311,7.0,10.0,70,0.48,,,-99.99,,2013-05-24 01:22:00,
2013-05-23 21:32:00,80.0,69.0,29.97,WNW,300,8.0,10.0,70,0.48,,,-99.99,,2013-05-24 01:32:00,
2013-05-23 21:42:00,80.0,69.0,29.97,WNW,300,8.0,10.0,70,0.48,,,-99.99,,2013-05-24 01:42:00,
2013-05-23 21:52:00,80.0,70.0,29.98,NW,311,7.0,9.0,71,0.48,,,-99.99,,2013-05-24 01:52:00,
2013-05-23 22:02:00,80.0,71.0,29.98,NNW,347,3.0,5.0,73,0.48,,,-99.99,,2013-05-24 02:02:00,
2013-05-23 22:12:00,80.0,71.0,29.98,NNW,347,3.0,5.0,73,0.48,,,-99.99,,2013-05-24 02:12:00,
2013-05-23 22:21:00,78.0,69.0,29.99,ENE,68,3.0,5.0,75,0.48,,,-99.99,,2013-05-24 02:21:00,
2013-05-23 22:32:00,78.0,69.0,29.99,NNW,340,3.0,8.0,75,0.48,,,-99.99,,2013-05-24 02:32:00,
2013-05-23 22:42:00,78.0,69.0,29.99,NNW,340,3.0,8.0,75,0.48,,,-99.99,,2013-05-24 02:42:00,
2013-05-23 22:52:00,77.0,69.0,29.99,ENE,77,1.0,3.0,77,0.48,,,-99.99,,2013-05-24 02:52:00,
2013-05-23 23:02:00,77.0,69.0,29.99,ENE,75,3.0,5.0,76,0.48,,,-99.99,,2013-05-24 03:02:00,
2013-05-23 23:11:00,76.0,68.0,29.99,East,100,6.0,8.0,76,0.48,,,-99.99,,2013-05-24 03:11:00,
2013-05-23 23:22:00,76.0,68.0,29.99,East,100,6.0,8.0,76,0.48,,,-99.99,,2013-05-24 03:22:00,
2013-05-23 23:33:00,76.0,68.0,29.99,ESE,107,7.0,9.0,76,0.48,,,-99.99,,2013-05-24 03:33:00,
2013-05-23 23:42:00,76.0,68.0,29.99,ESE,107,7.0,9.0,76,0.48,,,-99.99,,2013-05-24 03:42:00,
2013-05-23 23:53:00,75.0,67.0,29.99,ESE,113,5.0,7.0,77,0.48,,,-99.99,,2013-05-24 03:53:00,